This demonstration page uses our WeatherBlox Daily Observations layout. Learn more.

Left ArrowRight Arrow

Hourly Observations for April 16, 2020

Temp ( °F °C ) Dew Point ( °F °C ) Humidity (%) Winds ( mph kmh ) Pressure ( in mb ) Visibility ( mi km ) Precip ( " mm )
12:52 am 00:52 Cloudy 38 3.3 26 -3.3 62 62 NNE 12 19 30.25 1024 10 16 0.00 0.00
1:52 am 01:52 Cloudy 36 2.2 25 -3.9 64 64 Calm 30.27 1025 10 16 0.00 0.00
2:52 am 02:52 Cloudy 36 2.2 23 -5 59 59 E 3 6 30.25 1024 10 16 0.00 0.00
3:52 am 03:52 Cloudy 36 2.2 24 -4.4 62 62 ENE 5 7 30.26 1025 10 16 0.00 0.00
4:52 am 04:52 Cloudy 35 1.7 25 -3.9 67 67 E 7 11 30.27 1025 10 16 0.00 0.00
5:52 am 05:52 Cloudy 34 1.1 23 -5 64 64 E 10 17 30.27 1025 10 16 0.00 0.00
6:52 am 06:52 Cloudy 34 1.1 25 -3.9 70 70 E 8 13 30.29 1026 10 16 0.00 0.00
7:52 am 07:52 Cloudy 34 1.1 26 -3.3 73 73 ESE 7 11 30.30 1026 10 16 0.00 0.00
8:52 am 08:52 Cloudy 35 1.7 27 -2.8 72 72 VRB 6 9 30.32 1027 10 16 0.00 0.00
9:52 am 09:52 Cloudy 36 2.2 25 -3.9 64 64 E 8 13 30.32 1027 10 16 0.00 0.00
10:52 am 10:52 Cloudy 37 2.8 21 -6.1 52 52 E 14 22 30.30 1026 10 16 0.00 0.00
11:52 am 11:52 Cloudy 38 3.3 20 -6.7 48 48 ENE 10 17 30.29 1026 10 16 0.00 0.00
12:52 pm 12:52 Cloudy with Light Snow 38 3.3 20 -6.7 48 48 E 18 30 30.24 1024 10 16 0.00 0.00
1:39 pm 13:39 Cloudy with Light Snow 35 1.7 27 -2.8 72 72 ESE 13 20 30.28 1025 2 2 0.00 0.00
1:52 pm 13:52 Mostly Cloudy with Light Snow 33 0.6 29 -1.7 85 85 E 10 17 30.25 1025 1 1 0.00 0.00
2:14 pm 14:14 Cloudy with Snow 32 0 30 -1.1 92 92 E 8 13 30.27 1025 1 1 0.01 0.25
2:52 pm 14:52 Cloudy with Snow 32 0 30 -1.1 92 92 ENE 9 15 30.24 1024 1 1 0.04 1.02
3:01 pm 15:01 Cloudy with Light Snow 32 0 31 -0.6 96 96 ENE 8 13 30.25 1024 1 1 0.00 0.00
3:27 pm 15:27 Cloudy with Heavy Snow 32 0 30 -1.1 92 92 NE 14 22 30.25 1024 0 0 0.02 0.51
3:35 pm 15:35 Mostly Cloudy with Heavy Snow 32 0 31 -0.6 96 96 NE 13 20 30.25 1024 0 0 0.04 1.02
3:52 pm 15:52 Mostly Cloudy with Snow 32 0 30 -1.1 92 92 NE 9 15 30.24 1024 1 1 0.06 1.52
3:59 pm 15:59 Mostly Cloudy with Light Snow 32 0 31 -0.6 96 96 NE 8 13 30.26 1025 1 1 0.00 0.00
4:11 pm 16:11 Cloudy with Snow 32 0 31 -0.6 96 96 ENE 12 19 30.25 1024 1 1 0.01 0.25
4:18 pm 16:18 Mostly Cloudy with Heavy Snow 32 0 30 -1.1 92 92 NE 10 17 30.25 1024 0 0 0.02 0.51
4:38 pm 16:38 Mostly Cloudy with Snow 32 0 31 -0.6 96 96 ENE 12 19 30.25 1024 1 1 0.04 1.02
4:52 pm 16:52 Cloudy with Snow 32 0 31 -0.6 96 96 NE 6 9 30.22 1024 1 1 0.05 1.27
5:52 pm 17:52 Cloudy with Light Snow 33 0.6 31 -0.6 92 92 NNE 13 20 30.23 1024 1 1 0.05 1.27
6:52 pm 18:52 Cloudy with Light Snow 32 0 30 -1.1 92 92 NNE 13 20 30.21 1023 1 1 0.02 0.51
7:15 pm 19:15 Cloudy with Light Snow 32 0 30 -1.1 92 92 NE 15 24 30.23 1024 1 2 0.01 0.25
7:52 pm 19:52 Cloudy with Snow 32 0 30 -1.1 92 92 NE 14 22 30.21 1023 1 1 0.02 0.51
8:17 pm 20:17 Cloudy with Light Snow 32 0 30 -1.1 92 92 NE 13 20 30.23 1024 1 1 0.02 0.51
8:52 pm 20:52 Cloudy with Light Snow 32 0 30 -1.1 92 92 NE 12 19 30.24 1024 1 1 0.04 1.02
9:52 pm 21:52 Cloudy with Light Snow 32 0 31 -0.6 96 96 N 8 13 30.28 1025 1 1 0.07 1.78
10:34 pm 22:34 Cloudy with Light Snow 32 0 31 -0.6 96 96 NNE 8 13 30.28 1025 2 3 0.02 0.51
10:52 pm 22:52 Cloudy with Light Snow 31 -0.6 31 -0.6 100 100 N 10 17 30.25 1024 2 2 0.02 0.51
11:19 pm 23:19 Cloudy with Light Snow 31 -0.6 30 -1.1 96 96 N 9 15 30.28 1025 2 2 0.01 0.25
11:37 pm 23:37 Cloudy with Light Snow 31 -0.6 30 -1.1 96 96 N 10 17 30.28 1025 2 3 0.01 0.25
11:52 pm 23:52 Cloudy with Light Snow 31 -0.6 30 -1.1 96 96 N 9 15 30.26 1025 3 5 0.01 0.25

Powered by AerisWeather